| time (UTC) | temp F | wind direction | speed knots | gust knots | rain 1hr in | rain 24hr in | rain mn in | humidity % | barometer mb |
| 20260831054004 | 85 | 202 | 0.0 | 0.9 | 0.00 | 0.00 | 0.00 | 61 | 1014.6 |
| 20260831053504 | 85 | 202 | 0.0 | 0.9 | 0.00 | 0.00 | 0.00 | 61 | 1014.6 |
| 20260831053003 | 85 | 202 | 0.0 | 0.9 | 0.00 | 0.00 | 0.00 | 61 | 1014.5 |
| 20260831052503 | 85 | 0 | 0.0 | 0.0 | 0.00 | 0.00 | 0.00 | 60 | 1014.5 |
| 20260831052003 | 85 | 0 | 0.0 | 0.0 | 0.00 | 0.00 | 0.00 | 60 | 1014.4 |
| 20260831051504 | 85 | 201 | 0.0 | 0.9 | 0.00 | 0.00 | 0.00 | 60 | 1014.3 |
| 20260831051004 | 86 | 201 | 0.0 | 0.9 | 0.00 | 0.00 | 0.00 | 59 | 1014.3 |
| 20260831050500 | 86 | 0 | 0.0 | 0.0 | 0.00 | 0.00 | 0.00 | 59 | 1014.3 |
| 20260831050001 | 86 | 0 | 0.0 | 0.0 | 0.00 | 0.00 | 0.00 | 59 | 1014.3 |
| 20260831045500 | 86 | 202 | 0.0 | 0.9 | 0.00 | 0.00 | 0.00 | 59 | 1014.3 |
| 20260831045000 | 86 | 202 | 0.0 | 1.7 | 0.00 | 0.00 | 0.00 | 59 | 1014.3 |
| 20260831044459 | 86 | 202 | 0.0 | 1.7 | 0.00 | 0.00 | 0.00 | 59 | 1014.3 |
| 20260831043959 | 86 | 201 | 0.0 | 0.9 | 0.00 | 0.00 | 0.00 | 59 | 1014.3 |
| 20260831043500 | 86 | 201 | 0.0 | 0.9 | 0.00 | 0.00 | 0.00 | 58 | 1014.3 |
| 20260831043000 | 86 | 0 | 0.0 | 0.0 | 0.00 | 0.00 | 0.00 | 58 | 1014.2 |
| 20260831042000 | 87 | 202 | 0.0 | 0.9 | 0.00 | 0.00 | 0.00 | 57 | 1014.2 |
| 20260831041500 | 87 | 202 | 0.0 | 0.9 | 0.00 | 0.00 | 0.00 | 57 | 1014.3 |
| 20260831041000 | 87 | 202 | 0.0 | 1.7 | 0.00 | 0.00 | 0.00 | 57 | 1014.3 |
| 20260831040501 | 87 | 202 | 0.0 | 1.7 | 0.00 | 0.00 | 0.00 | 57 | 1014.3 |
| 20260831040000 | 87 | 195 | 0.0 | 2.6 | 0.00 | 0.00 | 0.00 | 57 | 1014.1 |
| 20260831035500 | 87 | 181 | 0.0 | 2.6 | 0.00 | 0.00 | 0.00 | 57 | 1014.1 |
| 20260831035000 | 87 | 168 | 0.0 | 0.9 | 0.00 | 0.00 | 0.00 | 57 | 1014.1 |
| 20260831034500 | 87 | 168 | 0.0 | 1.7 | 0.00 | 0.00 | 0.00 | 57 | 1014.1 |
| 20260831034000 | 87 | 168 | 0.0 | 1.7 | 0.00 | 0.00 | 0.00 | 56 | 1014.0 |
| 20260831033500 | 87 | 168 | 0.0 | 0.9 | 0.00 | 0.00 | 0.00 | 56 | 1014.1 |
| 20260831032959 | 87 | 168 | 0.0 | 0.9 | 0.00 | 0.00 | 0.00 | 56 | 1014.0 |
| 20260831032500 | 88 | 168 | 0.0 | 0.9 | 0.00 | 0.00 | 0.00 | 56 | 1014.0 |
| 20260831032000 | 88 | 168 | 0.0 | 0.9 | 0.00 | 0.00 | 0.00 | 55 | 1014.0 |
| 20260831031500 | 88 | 168 | 0.0 | 1.7 | 0.00 | 0.00 | 0.00 | 55 | 1014.1 |
| 20260831031000 | 88 | 168 | 0.0 | 1.7 | 0.00 | 0.00 | 0.00 | 55 | 1014.2 |
| 20260831030500 | 88 | 168 | 0.0 | 1.7 | 0.00 | 0.00 | 0.00 | 55 | 1014.1 |
| 20260831025500 | 88 | 168 | 0.0 | 0.9 | 0.00 | 0.00 | 0.00 | 55 | 1013.9 |
| 20260831025000 | 88 | 0 | 0.0 | 0.0 | 0.00 | 0.00 | 0.00 | 54 | 1013.9 |
| 20260831024500 | 89 | 0 | 0.0 | 0.0 | 0.00 | 0.00 | 0.00 | 54 | 1013.9 |
| 20260831024000 | 89 | 168 | 0.0 | 0.9 | 0.00 | 0.00 | 0.00 | 54 | 1013.8 |
| 20260831023500 | 89 | 167 | 0.0 | 1.7 | 0.00 | 0.00 | 0.00 | 53 | 1013.7 |
| 20260831022500 | 89 | 164 | 0.0 | 0.9 | 0.00 | 0.00 | 0.00 | 53 | 1013.6 |
| 20260831022000 | 89 | 163 | 0.0 | 1.7 | 0.00 | 0.00 | 0.00 | 53 | 1013.6 |
| 20260831021500 | 89 | 163 | 0.0 | 1.7 | 0.00 | 0.00 | 0.00 | 53 | 1013.5 |
| 20260831020501 | 90 | 163 | 0.0 | 1.7 | 0.00 | 0.00 | 0.00 | 53 | 1013.3 |
| 20260831020000 | 90 | 0 | 0.0 | 0.0 | 0.00 | 0.00 | 0.00 | 52 | 1013.2 |
| 20260831015500 | 90 | 0 | 0.0 | 0.0 | 0.00 | 0.00 | 0.00 | 52 | 1013.1 |
| 20260831015000 | 90 | 0 | 0.0 | 0.0 | 0.00 | 0.00 | 0.00 | 52 | 1013.1 |
| 20260831014500 | 91 | 169 | 0.0 | 0.9 | 0.00 | 0.00 | 0.00 | 52 | 1013.0 |
| 20260831014000 | 91 | 169 | 0.0 | 0.9 | 0.00 | 0.00 | 0.00 | 51 | 1012.9 |
| 20260831013001 | 92 | 165 | 0.0 | 1.7 | 0.00 | 0.00 | 0.00 | 50 | 1012.9 |
| 20260831012500 | 92 | 163 | 0.0 | 1.7 | 0.00 | 0.00 | 0.00 | 50 | 1012.9 |
| 20260831012000 | 92 | 161 | 0.0 | 2.6 | 0.00 | 0.00 | 0.00 | 49 | 1012.8 |
| 20260831011500 | 92 | 166 | 0.0 | 2.6 | 0.00 | 0.00 | 0.00 | 49 | 1012.8 |
| 20260831010500 | 93 | 168 | 0.0 | 2.6 | 0.00 | 0.00 | 0.00 | 48 | 1012.8 |
| 20260831010000 | 94 | 176 | 0.0 | 2.6 | 0.00 | 0.00 | 0.00 | 47 | 1012.7 |
| 20260831005500 | 94 | 174 | 0.9 | 2.6 | 0.00 | 0.00 | 0.00 | 46 | 1012.7 |
| 20260831005000 | 94 | 168 | 0.0 | 2.6 | 0.00 | 0.00 | 0.00 | 46 | 1012.8 |
| 20260831004500 | 95 | 160 | 0.0 | 0.9 | 0.00 | 0.00 | 0.00 | 45 | 1012.6 |
| 20260831004001 | 95 | 169 | 0.0 | 2.6 | 0.00 | 0.00 | 0.00 | 44 | 1012.7 |
| 20260831003500 | 96 | 166 | 0.9 | 2.6 | 0.00 | 0.00 | 0.00 | 44 | 1012.6 |
| 20260831003000 | 97 | 163 | 0.9 | 2.6 | 0.00 | 0.00 | 0.00 | 44 | 1012.6 |
| 20260831002501 | 97 | 158 | 0.0 | 2.6 | 0.00 | 0.00 | 0.00 | 44 | 1012.5 |
| 20260831002000 | 98 | 151 | 0.0 | 4.3 | 0.00 | 0.00 | 0.00 | 44 | 1012.5 |
| 20260831001501 | 98 | 150 | 0.0 | 4.3 | 0.00 | 0.00 | 0.00 | 43 | 1012.6 |
| 20260831001000 | 99 | 155 | 0.0 | 1.7 | 0.00 | 0.00 | 0.00 | 42 | 1012.7 |
| 20260831000500 | 100 | 153 | 0.9 | 4.3 | 0.00 | 0.00 | 0.00 | 42 | 1012.6 |
| 20260831000000 | 99 | 155 | 0.9 | 5.2 | 0.00 | 0.00 | 0.00 | 42 | 1012.7 |
| 20260830235501 | 99 | 143 | 0.9 | 5.2 | 0.00 | 0.00 | 0.00 | 42 | 1012.7 |
| 20260830235000 | 100 | 111 | 0.0 | 4.3 | 0.00 | 0.00 | 0.00 | 42 | 1012.8 |
| 20260830234500 | 100 | 146 | 0.9 | 3.5 | 0.00 | 0.00 | 0.00 | 41 | 1012.7 |
| 20260830233500 | 100 | 128 | 0.9 | 3.5 | 0.00 | 0.00 | 0.00 | 42 | 1012.8 |
| 20260830233000 | 101 | 120 | 0.9 | 3.5 | 0.00 | 0.00 | 0.00 | 41 | 1012.8 |
| 20260830232500 | 101 | 144 | 0.9 | 4.3 | 0.00 | 0.00 | 0.00 | 41 | 1012.9 |
| 20260830232000 | 101 | 155 | 0.9 | 4.3 | 0.00 | 0.00 | 0.00 | 41 | 1012.8 |
| 20260830231500 | 101 | 161 | 0.9 | 5.2 | 0.00 | 0.00 | 0.00 | 40 | 1012.9 |
| 20260830231000 | 101 | 165 | 0.9 | 5.2 | 0.00 | 0.00 | 0.00 | 41 | 1012.9 |
| 20260830230501 | 101 | 171 | 0.9 | 3.5 | 0.00 | 0.00 | 0.00 | 40 | 1012.9 |
| 20260830230000 | 101 | 161 | 0.9 | 4.3 | 0.00 | 0.00 | 0.00 | 41 | 1013.0 |
| 20260830225501 | 101 | 162 | 0.9 | 4.3 | 0.00 | 0.00 | 0.00 | 41 | 1013.0 |
| 20260830225001 | 100 | 175 | 0.9 | 3.5 | 0.00 | 0.00 | 0.00 | 41 | 1013.1 |
| 20260830224500 | 100 | 179 | 0.9 | 3.5 | 0.00 | 0.00 | 0.00 | 41 | 1013.1 |
| 20260830224000 | 99 | 179 | 0.9 | 3.5 | 0.00 | 0.00 | 0.00 | 41 | 1013.1 |
| 20260830223501 | 99 | 182 | 0.9 | 3.5 | 0.00 | 0.00 | 0.00 | 41 | 1013.1 |
| 20260830223001 | 99 | 186 | 1.7 | 7.0 | 0.00 | 0.00 | 0.00 | 41 | 1013.1 |
| 20260830222001 | 100 | 183 | 2.6 | 7.0 | 0.00 | 0.00 | 0.00 | 41 | 1013.2 |
| 20260830221501 | 100 | 174 | 0.9 | 7.0 | 0.00 | 0.00 | 0.00 | 40 | 1013.1 |
| 20260830221000 | 100 | 116 | 0.9 | 3.5 | 0.00 | 0.00 | 0.00 | 42 | 1013.1 |
| 20260830220001 | 101 | 158 | 1.7 | 11.3 | 0.00 | 0.00 | 0.00 | 40 | 1013.0 |
| 20260830215501 | 101 | 145 | 0.9 | 6.1 | 0.00 | 0.00 | 0.00 | 40 | 1013.0 |
| 20260830215000 | 100 | 142 | 1.7 | 4.3 | 0.00 | 0.00 | 0.00 | 42 | 1013.2 |
| 20260830214501 | 100 | 163 | 0.9 | 4.3 | 0.00 | 0.00 | 0.00 | 41 | 1013.2 |
| 20260830214001 | 100 | 177 | 1.7 | 6.1 | 0.00 | 0.00 | 0.00 | 38 | 1013.2 |
| 20260830213001 | 101 | 168 | 0.9 | 6.1 | 0.00 | 0.00 | 0.00 | 37 | 1013.4 |
| 20260830212501 | 101 | 168 | 1.7 | 6.1 | 0.00 | 0.00 | 0.00 | 37 | 1013.4 |
| 20260830211501 | 103 | 157 | 1.7 | 7.0 | 0.00 | 0.00 | 0.00 | 36 | 1013.6 |
| 20260830211000 | 103 | 151 | 1.7 | 7.0 | 0.00 | 0.00 | 0.00 | 38 | 1013.4 |
| 20260830205001 | 102 | 183 | 3.5 | 11.3 | 0.00 | 0.00 | 0.00 | 38 | 1013.7 |
| 20260830204500 | 102 | 202 | 2.6 | 11.3 | 0.00 | 0.00 | 0.00 | 38 | 1013.8 |
| 20260830204001 | 102 | 196 | 2.6 | 7.0 | 0.00 | 0.00 | 0.00 | 38 | 1013.9 |
| 20260830203000 | 102 | 170 | 1.7 | 5.2 | 0.00 | 0.00 | 0.00 | 39 | 1014.0 |
| 20260830202501 | 102 | 168 | 1.7 | 5.2 | 0.00 | 0.00 | 0.00 | 40 | 1014.1 |
| 20260830201500 | 100 | 183 | 3.5 | 8.7 | 0.00 | 0.00 | 0.00 | 41 | 1014.4 |
| 20260830200501 | 101 | 176 | 1.7 | 7.0 | 0.00 | 0.00 | 0.00 | 41 | 1014.4 |
| 20260830200001 | 101 | 170 | 2.6 | 6.1 | 0.00 | 0.00 | 0.00 | 41 | 1014.5 |
| 20260830195001 | 100 | 181 | 2.6 | 8.7 | 0.00 | 0.00 | 0.00 | 41 | 1014.6 |
| 20260830194501 | 100 | 183 | 2.6 | 7.0 | 0.00 | 0.00 | 0.00 | 42 | 1014.7 |
| 20260830194000 | 100 | 166 | 2.6 | 10.4 | 0.00 | 0.00 | 0.00 | 42 | 1014.8 |
| 20260830193501 | 100 | 169 | 3.5 | 10.4 | 0.00 | 0.00 | 0.00 | 40 | 1014.9 |
| 20260830193001 | 101 | 173 | 2.6 | 8.7 | 0.00 | 0.00 | 0.00 | 41 | 1014.8 |
| 20260830192502 | 101 | 197 | 2.6 | 8.7 | 0.00 | 0.00 | 0.00 | 44 | 1014.8 |
| 20260830191502 | 100 | 196 | 3.5 | 10.4 | 0.00 | 0.00 | 0.00 | 43 | 1015.1 |
| 20260830191000 | 100 | 190 | 2.6 | 7.0 | 0.00 | 0.00 | 0.00 | 43 | 1015.2 |
| 20260830190501 | 100 | 183 | 3.5 | 7.8 | 0.00 | 0.00 | 0.00 | 44 | 1015.3 |
| 20260830190000 | 100 | 183 | 3.5 | 9.6 | 0.00 | 0.00 | 0.00 | 43 | 1015.4 |
| 20260830185501 | 100 | 185 | 2.6 | 9.6 | 0.00 | 0.00 | 0.00 | 44 | 1015.3 |
| 20260830185002 | 100 | 178 | 3.5 | 9.6 | 0.00 | 0.00 | 0.00 | 43 | 1015.5 |
| 20260830184501 | 100 | 176 | 3.5 | 9.6 | 0.00 | 0.00 | 0.00 | 44 | 1015.5 |
| 20260830184001 | 100 | 188 | 3.5 | 9.6 | 0.00 | 0.00 | 0.00 | 44 | 1015.6 |
| 20260830183500 | 100 | 183 | 3.5 | 8.7 | 0.00 | 0.00 | 0.00 | 44 | 1015.7 |
| 20260830183001 | 100 | 165 | 2.6 | 9.6 | 0.00 | 0.00 | 0.00 | 45 | 1015.5 |
| 20260830182501 | 100 | 172 | 2.6 | 9.6 | 0.00 | 0.00 | 0.00 | 45 | 1015.7 |
| 20260830182001 | 99 | 167 | 2.6 | 7.0 | 0.00 | 0.00 | 0.00 | 45 | 1015.8 |
| 20260830181501 | 99 | 178 | 3.5 | 11.3 | 0.00 | 0.00 | 0.00 | 46 | 1015.9 |
| 20260830181001 | 99 | 189 | 4.3 | 11.3 | 0.00 | 0.00 | 0.00 | 46 | 1016.0 |
| 20260830180501 | 99 | 188 | 4.3 | 9.6 | 0.00 | 0.00 | 0.00 | 46 | 1016.0 |
| 20260830180000 | 99 | 199 | 3.5 | 7.8 | 0.00 | 0.00 | 0.00 | 47 | 1016.2 |
| 20260830175501 | 99 | 203 | 3.5 | 7.8 | 0.00 | 0.00 | 0.00 | 47 | 1016.1 |
| 20260830175001 | 99 | 205 | 2.6 | 7.0 | 0.00 | 0.00 | 0.00 | 47 | 1016.3 |
| 20260830174501 | 98 | 202 | 2.6 | 7.8 | 0.00 | 0.00 | 0.00 | 48 | 1016.3 |
| 20260830174001 | 98 | 197 | 2.6 | 11.3 | 0.00 | 0.00 | 0.00 | 47 | 1016.3 |
| 20260830173500 | 98 | 182 | 3.5 | 11.3 | 0.00 | 0.00 | 0.00 | 48 | 1016.4 |
| 20260830173001 | 98 | 176 | 3.5 | 9.6 | 0.00 | 0.00 | 0.00 | 49 | 1016.5 |
| 20260830172502 | 98 | 184 | 3.5 | 9.6 | 0.00 | 0.00 | 0.00 | 49 | 1016.5 |
| 20260830172001 | 98 | 171 | 2.6 | 8.7 | 0.00 | 0.00 | 0.00 | 48 | 1016.6 |
| 20260830171001 | 97 | 185 | 3.5 | 10.4 | 0.00 | 0.00 | 0.00 | 51 | 1016.7 |
| 20260830170001 | 96 | 210 | 2.6 | 8.7 | 0.00 | 0.00 | 0.00 | 51 | 1016.8 |
| 20260830165501 | 96 | 200 | 3.5 | 8.7 | 0.00 | 0.00 | 0.00 | 51 | 1016.8 |
| 20260830165001 | 96 | 186 | 3.5 | 8.7 | 0.00 | 0.00 | 0.00 | 52 | 1016.8 |
| 20260830164502 | 96 | 186 | 2.6 | 8.7 | 0.00 | 0.00 | 0.00 | 52 | 1016.8 |
| 20260830164001 | 96 | 195 | 1.7 | 8.7 | 0.00 | 0.00 | 0.00 | 53 | 1017.0 |
| 20260830163501 | 96 | 185 | 2.6 | 8.7 | 0.00 | 0.00 | 0.00 | 53 | 1017.0 |
| 20260830163001 | 95 | 195 | 2.6 | 7.0 | 0.00 | 0.00 | 0.00 | 55 | 1017.0 |
| 20260830162501 | 95 | 225 | 1.7 | 6.1 | 0.00 | 0.00 | 0.00 | 56 | 1017.0 |
| 20260830162001 | 95 | 223 | 1.7 | 6.1 | 0.00 | 0.00 | 0.00 | 56 | 1017.2 |
| 20260830161502 | 95 | 221 | 1.7 | 4.3 | 0.00 | 0.00 | 0.00 | 56 | 1017.1 |
| 20260830161001 | 94 | 220 | 1.7 | 5.2 | 0.00 | 0.00 | 0.00 | 57 | 1017.0 |
| 20260830160501 | 94 | 221 | 2.6 | 6.1 | 0.00 | 0.00 | 0.00 | 57 | 1017.0 |
| 20260830160001 | 93 | 224 | 2.6 | 6.1 | 0.00 | 0.00 | 0.00 | 58 | 1017.0 |
| 20260830155502 | 93 | 208 | 2.6 | 6.1 | 0.00 | 0.00 | 0.00 | 58 | 1017.0 |
| 20260830155001 | 93 | 220 | 2.6 | 6.1 | 0.00 | 0.00 | 0.00 | 59 | 1017.0 |
| 20260830154001 | 92 | 219 | 1.7 | 5.2 | 0.00 | 0.00 | 0.00 | 59 | 1017.0 |
| 20260830153501 | 92 | 214 | 0.9 | 5.2 | 0.00 | 0.00 | 0.00 | 60 | 1017.2 |
| 20260830153001 | 91 | 217 | 1.7 | 6.1 | 0.00 | 0.00 | 0.00 | 61 | 1017.2 |
| 20260830152502 | 91 | 229 | 1.7 | 6.1 | 0.00 | 0.00 | 0.00 | 62 | 1017.2 |
| 20260830150501 | 90 | 202 | 1.7 | 5.2 | 0.00 | 0.00 | 0.00 | 65 | 1017.0 |
| 20260830150001 | 89 | 200 | 0.9 | 5.2 | 0.00 | 0.00 | 0.00 | 64 | 1017.1 |
| 20260830145501 | 89 | 202 | 0.9 | 4.3 | 0.00 | 0.00 | 0.00 | 66 | 1017.0 |
| 20260830145002 | 88 | 198 | 0.9 | 4.3 | 0.00 | 0.00 | 0.00 | 67 | 1017.1 |
| 20260830144501 | 88 | 203 | 0.9 | 3.5 | 0.00 | 0.00 | 0.00 | 69 | 1017.0 |
| 20260830143501 | 87 | 173 | 0.9 | 3.5 | 0.00 | 0.00 | 0.00 | 71 | 1017.0 |
| 20260830143001 | 86 | 177 | 0.9 | 3.5 | 0.00 | 0.00 | 0.00 | 71 | 1017.1 |
| 20260830142001 | 86 | 190 | 0.9 | 4.3 | 0.00 | 0.00 | 0.00 | 72 | 1017.2 |
| 20260830141501 | 85 | 199 | 0.9 | 4.3 | 0.00 | 0.00 | 0.00 | 73 | 1017.2 |
| 20260830141002 | 85 | 187 | 0.9 | 3.5 | 0.00 | 0.00 | 0.00 | 74 | 1017.3 |
| 20260830140001 | 84 | 194 | 0.9 | 5.2 | 0.00 | 0.00 | 0.00 | 76 | 1017.2 |
| 20260830135502 | 83 | 193 | 0.9 | 4.3 | 0.00 | 0.00 | 0.00 | 77 | 1017.1 |
| 20260830135001 | 82 | 183 | 0.9 | 2.6 | 0.00 | 0.00 | 0.00 | 78 | 1017.1 |
| 20260830134502 | 82 | 183 | 0.9 | 3.5 | 0.00 | 0.00 | 0.00 | 79 | 1017.1 |
| 20260830134001 | 81 | 184 | 1.7 | 4.3 | 0.00 | 0.00 | 0.00 | 79 | 1017.1 |
| 20260830133501 | 80 | 174 | 1.7 | 4.3 | 0.00 | 0.00 | 0.00 | 80 | 1017.1 |
| 20260830133002 | 80 | 173 | 1.7 | 5.2 | 0.00 | 0.00 | 0.00 | 81 | 1017.0 |
| 20260830132502 | 79 | 179 | 1.7 | 5.2 | 0.00 | 0.00 | 0.00 | 81 | 1016.9 |
| 20260830131501 | 79 | 181 | 0.9 | 3.5 | 0.00 | 0.00 | 0.00 | 81 | 1016.7 |
| 20260830131002 | 78 | 179 | 0.9 | 4.3 | 0.00 | 0.00 | 0.00 | 82 | 1016.9 |
| 20260830130002 | 78 | 169 | 0.0 | 2.6 | 0.00 | 0.00 | 0.00 | 82 | 1016.8 |
| 20260830125501 | 78 | 168 | 0.0 | 1.7 | 0.00 | 0.00 | 0.00 | 81 | 1016.7 |
| 20260830125001 | 77 | 163 | 0.0 | 2.6 | 0.00 | 0.00 | 0.00 | 81 | 1016.6 |
| 20260830124502 | 77 | 168 | 0.0 | 2.6 | 0.00 | 0.00 | 0.00 | 81 | 1016.5 |
| 20260830124002 | 77 | 174 | 0.0 | 2.6 | 0.00 | 0.00 | 0.00 | 81 | 1016.6 |
| 20260830123501 | 77 | 169 | 0.0 | 1.7 | 0.00 | 0.00 | 0.00 | 81 | 1016.4 |
| 20260830123002 | 77 | 167 | 0.0 | 1.7 | 0.00 | 0.00 | 0.00 | 81 | 1016.4 |
| 20260830122501 | 77 | 178 | 0.0 | 1.7 | 0.00 | 0.00 | 0.00 | 80 | 1016.4 |
| 20260830122002 | 77 | 188 | 0.0 | 1.7 | 0.00 | 0.00 | 0.00 | 80 | 1016.2 |
| 20260830121501 | 77 | 189 | 0.0 | 1.7 | 0.00 | 0.00 | 0.00 | 80 | 1016.2 |
| 20260830120501 | 77 | 0 | 0.0 | 0.0 | 0.00 | 0.00 | 0.00 | 79 | 1016.1 |
| 20260830120001 | 77 | 194 | 0.0 | 1.7 | 0.00 | 0.00 | 0.00 | 78 | 1016.2 |
| 20260830115501 | 77 | 191 | 0.0 | 1.7 | 0.00 | 0.00 | 0.00 | 78 | 1016.0 |
| 20260830115001 | 77 | 184 | 0.0 | 2.6 | 0.00 | 0.00 | 0.00 | 78 | 1016.0 |
| 20260830114501 | 78 | 182 | 0.0 | 2.6 | 0.00 | 0.00 | 0.00 | 77 | 1015.9 |
| 20260830114002 | 78 | 169 | 0.0 | 1.7 | 0.00 | 0.00 | 0.00 | 77 | 1015.8 |
| 20260830113502 | 78 | 158 | 0.0 | 1.7 | 0.00 | 0.00 | 0.00 | 76 | 1015.8 |
| 20260830113001 | 78 | 171 | 0.0 | 0.9 | 0.00 | 0.00 | 0.00 | 76 | 1015.8 |
| 20260830112501 | 78 | 172 | 0.0 | 0.9 | 0.00 | 0.00 | 0.00 | 76 | 1015.7 |
| 20260830112001 | 78 | 174 | 0.0 | 1.7 | 0.00 | 0.00 | 0.00 | 76 | 1015.6 |
| 20260830111502 | 78 | 173 | 0.0 | 1.7 | 0.00 | 0.00 | 0.00 | 76 | 1015.6 |
| 20260830111002 | 78 | 172 | 0.0 | 1.7 | 0.00 | 0.00 | 0.00 | 75 | 1015.5 |
| 20260830110001 | 78 | 171 | 0.0 | 0.9 | 0.00 | 0.00 | 0.00 | 74 | 1015.5 |
| 20260830105501 | 78 | 171 | 0.0 | 0.9 | 0.00 | 0.00 | 0.00 | 74 | 1015.5 |
| 20260830105002 | 78 | 171 | 0.0 | 0.9 | 0.00 | 0.00 | 0.00 | 73 | 1015.5 |
| 20260830104502 | 78 | 171 | 0.0 | 1.7 | 0.00 | 0.00 | 0.00 | 73 | 1015.4 |
| 20260830104001 | 78 | 170 | 0.0 | 1.7 | 0.00 | 0.00 | 0.00 | 73 | 1015.4 |
| 20260830103002 | 78 | 168 | 0.0 | 1.7 | 0.00 | 0.00 | 0.00 | 72 | 1015.4 |
| 20260830102501 | 79 | 0 | 0.0 | 0.0 | 0.00 | 0.00 | 0.00 | 71 | 1015.3 |
| 20260830102001 | 79 | 0 | 0.0 | 0.0 | 0.00 | 0.00 | 0.00 | 70 | 1015.3 |
| 20260830101502 | 79 | 168 | 0.0 | 0.9 | 0.00 | 0.00 | 0.00 | 70 | 1015.3 |
| 20260830101001 | 79 | 168 | 0.0 | 1.7 | 0.00 | 0.00 | 0.00 | 70 | 1015.3 |
| 20260830100501 | 79 | 168 | 0.0 | 1.7 | 0.00 | 0.00 | 0.00 | 69 | 1015.3 |
| 20260830100002 | 79 | 168 | 0.0 | 0.9 | 0.00 | 0.00 | 0.00 | 69 | 1015.3 |
| 20260830095502 | 79 | 0 | 0.0 | 0.0 | 0.00 | 0.00 | 0.00 | 69 | 1015.3 |
| 20260830095002 | 79 | 0 | 0.0 | 0.0 | 0.00 | 0.00 | 0.00 | 68 | 1015.4 |
| 20260830094501 | 79 | 0 | 0.0 | 0.0 | 0.00 | 0.00 | 0.00 | 68 | 1015.3 |
| 20260830094001 | 79 | 0 | 0.0 | 0.0 | 0.00 | 0.00 | 0.00 | 68 | 1015.3 |
| 20260830093502 | 79 | 0 | 0.0 | 0.0 | 0.00 | 0.00 | 0.00 | 68 | 1015.3 |
| 20260830093001 | 79 | 168 | 0.0 | 0.9 | 0.00 | 0.00 | 0.00 | 68 | 1015.3 |
| 20260830092502 | 79 | 168 | 0.0 | 0.9 | 0.00 | 0.00 | 0.00 | 67 | 1015.3 |
| 20260830091503 | 79 | 168 | 0.0 | 0.9 | 0.00 | 0.00 | 0.00 | 67 | 1015.4 |
| 20260830091002 | 80 | 0 | 0.0 | 0.0 | 0.00 | 0.00 | 0.00 | 66 | 1015.2 |
| 20260830090502 | 80 | 0 | 0.0 | 0.0 | 0.00 | 0.00 | 0.00 | 66 | 1015.3 |
| 20260830090002 | 80 | 0 | 0.0 | 0.0 | 0.00 | 0.00 | 0.00 | 66 | 1015.4 |
| 20260830085502 | 80 | 0 | 0.0 | 0.0 | 0.00 | 0.00 | 0.00 | 65 | 1015.4 |
| 20260830085001 | 80 | 0 | 0.0 | 0.0 | 0.00 | 0.00 | 0.00 | 65 | 1015.3 |
| 20260830084502 | 81 | 0 | 0.0 | 0.0 | 0.00 | 0.00 | 0.00 | 64 | 1015.3 |
| 20260830084002 | 81 | 0 | 0.0 | 0.0 | 0.00 | 0.00 | 0.00 | 64 | 1015.3 |
| 20260830083502 | 81 | 162 | 0.0 | 1.7 | 0.00 | 0.00 | 0.00 | 64 | 1015.4 |
| 20260830083001 | 81 | 171 | 0.0 | 2.6 | 0.00 | 0.00 | 0.00 | 63 | 1015.4 |
| 20260830082501 | 81 | 178 | 0.0 | 2.6 | 0.00 | 0.00 | 0.00 | 63 | 1015.4 |
| 20260830081502 | 82 | 184 | 0.0 | 2.6 | 0.00 | 0.00 | 0.00 | 62 | 1015.4 |
| 20260830081002 | 82 | 181 | 0.0 | 2.6 | 0.00 | 0.00 | 0.00 | 63 | 1015.4 |
| 20260830080502 | 82 | 185 | 0.0 | 1.7 | 0.00 | 0.00 | 0.00 | 64 | 1015.3 |
| 20260830080001 | 82 | 199 | 0.0 | 1.7 | 0.00 | 0.00 | 0.00 | 63 | 1015.2 |
| 20260830075502 | 82 | 190 | 0.0 | 1.7 | 0.00 | 0.00 | 0.00 | 63 | 1015.2 |
| 20260830075002 | 82 | 0 | 0.0 | 0.0 | 0.00 | 0.00 | 0.00 | 62 | 1015.2 |
| 20260830074502 | 82 | 0 | 0.0 | 0.0 | 0.00 | 0.00 | 0.00 | 61 | 1015.2 |
| 20260830074002 | 82 | 0 | 0.0 | 0.0 | 0.00 | 0.00 | 0.00 | 60 | 1015.3 |
| 20260830072502 | 83 | 145 | 0.0 | 1.7 | 0.00 | 0.00 | 0.00 | 59 | 1015.4 |
| 20260830072002 | 83 | 145 | 0.0 | 1.7 | 0.00 | 0.00 | 0.00 | 59 | 1015.3 |
| 20260830071501 | 84 | 166 | 0.0 | 1.7 | 0.00 | 0.00 | 0.00 | 59 | 1015.4 |
| 20260830071001 | 84 | 169 | 0.0 | 1.7 | 0.00 | 0.00 | 0.00 | 58 | 1015.4 |
| 20260830070002 | 84 | 170 | 0.0 | 2.6 | 0.00 | 0.00 | 0.00 | 58 | 1015.4 |
| 20260830065502 | 84 | 167 | 0.0 | 2.6 | 0.00 | 0.00 | 0.00 | 58 | 1015.4 |
| 20260830065002 | 84 | 167 | 0.0 | 1.7 | 0.00 | 0.00 | 0.00 | 58 | 1015.5 |
| 20260830064502 | 85 | 149 | 0.0 | 2.6 | 0.00 | 0.00 | 0.00 | 58 | 1015.4 |
| 20260830064002 | 85 | 137 | 0.0 | 2.6 | 0.00 | 0.00 | 0.00 | 58 | 1015.3 |
| 20260830063502 | 85 | 168 | 0.0 | 4.3 | 0.00 | 0.00 | 0.00 | 58 | 1015.4 |
| 20260830063003 | 85 | 165 | 0.0 | 4.3 | 0.00 | 0.00 | 0.00 | 58 | 1015.4 |
| 20260830062002 | 85 | 141 | 0.0 | 2.6 | 0.00 | 0.00 | 0.00 | 59 | 1015.4 |
| 20260830061001 | 85 | 173 | 0.0 | 1.7 | 0.00 | 0.00 | 0.00 | 60 | 1015.5 |
| 20260830060502 | 85 | 155 | 0.0 | 1.7 | 0.00 | 0.00 | 0.00 | 61 | 1015.5 |
| 20260830060002 | 85 | 120 | 0.0 | 1.7 | 0.00 | 0.00 | 0.00 | 61 | 1015.4 |
| 20260830055502 | 85 | 109 | 0.0 | 1.7 | 0.00 | 0.00 | 0.00 | 60 | 1015.5 |
| 20260830055002 | 85 | 141 | 0.0 | 1.7 | 0.00 | 0.00 | 0.00 | 60 | 1015.4 |